Location: ???????
(54.6339°N, 39.4245°E)
Time: 03:25:07
(UTC+00:00)

Cosmos 1992 Rocket - Pass Details

Date: 19 May 2025
Orbit: 755 x 761 km, 74.0° (Epoch: 19 June)

Event Time Altitude Azimuth Distance (km) Brightness Sun altitude
Rises 23:32:24 0° 332° (NNW) 3,233 7.7 -10.1°
Reaches altitude 10° 23:34:47 10° 331° (NNW) 2,302 6.9 -9.9°
Maximum altitude 23:40:01 79° 246° (WSW) 780 4.0 -9.5°
Drops below altitude 10° 23:45:11 10° 161° (SSE) 2,283 6.1 -9.1°
Sets 23:47:32 0° 160° (SSE) 3,203 6.9 -8.9°
